sat.trackr.live / text

‹ back to catalog

STARLINK-34339

NORAD 64160 · 2025-112Q

PAYLOAD ACTIVE UNKNOWN

§ Identity

Operator
Country
US
Launch date
2025-05-27
Launch site
AFWTR
Launch vehicle
Mass (kg)
RCS (m²)

Purposes: comms

External: N2YO · Heavens-Above · Gunter

§ Orbital elements

Epoch: 2026-09-20T14:09:15.841152Z

Period
93.91 min
Inclination
97.2855°
Eccentricity
0.0001348
Mean motion
15.33437435 rev/d
Perigee alt
464.6 km
Apogee alt
466.5 km
Semi-major
6,843.7 km
B*
5.4541e-4
RAAN
310.6865°
Arg perigee
90.7627°
Mean anomaly
269.3770°
Rev number
7,276

§ Raw data

STARLINK-343391 64160U 25112Q   26263.58976668  .00017570  00000+0  54541-3 0  99932 64160  97.2855 310.6865 0001348  90.7627 269.3770 15.33437435 72765

JSON: /api/v1/satellites/64160 · /tle

For live sub-satellite position, see the globe view (requires WebGL).

§ Visibility from observer

Set your observer location to see the next 7 days of passes ≥ 10°. The values pass through the URL so the page stays shareable.

No JS? Fill the form by hand. The geolocation button needs JavaScript.